Time,TemperatureF,DewpointF,PressureIn,WindDirection,WindDirectionDegrees,WindSpeedMPH,WindSpeedGustMPH,Humidity,HourlyPrecipIn,Conditions,Clouds,dailyrainin,SoftwareType,DateUTC
2013-02-20 00:05:00,29.5,29.0,29.08,SW,225,0.0,-999.0,94,0.00,,,0.00,Rainwise IP-100,2013-02-20 08:05:00,
2013-02-20 00:10:00,29.0,28.0,29.08,SW,225,1.6,-999.0,94,0.00,,,0.00,Rainwise IP-100,2013-02-20 08:10:00,
2013-02-20 00:15:00,29.0,28.0,29.08,SW,225,0.0,-999.0,94,0.00,,,0.00,Rainwise IP-100,2013-02-20 08:15:00,
2013-02-20 00:20:00,29.2,28.0,29.08,SW,225,0.0,-999.0,95,0.00,,,0.00,Rainwise IP-100,2013-02-20 08:20:00,
2013-02-20 00:25:00,29.5,29.0,29.08,SW,225,0.0,-999.0,96,0.00,,,0.00,Rainwise IP-100,2013-02-20 08:25:00,
2013-02-20 00:30:00,29.5,29.0,29.08,SSE,157,1.4,-999.0,95,0.00,,,0.00,Rainwise IP-100,2013-02-20 08:30:00,
2013-02-20 00:35:00,29.4,28.0,29.07,ESE,112,3.5,-999.0,95,0.00,,,0.00,Rainwise IP-100,2013-02-20 08:35:00,
2013-02-20 00:40:00,29.2,28.0,29.07,ESE,112,0.0,-999.0,95,0.00,,,0.00,Rainwise IP-100,2013-02-20 08:40:00,
2013-02-20 00:45:00,29.1,28.0,29.08,SSE,157,0.0,-999.0,95,0.00,,,0.00,Rainwise IP-100,2013-02-20 08:45:00,
2013-02-20 00:50:00,29.0,28.0,29.08,SSE,157,0.0,-999.0,96,0.00,,,0.00,Rainwise IP-100,2013-02-20 08:50:00,
2013-02-20 00:55:00,28.8,28.0,29.08,SSE,157,0.0,-999.0,96,0.00,,,0.00,Rainwise IP-100,2013-02-20 08:55:00,
2013-02-20 01:00:00,28.9,28.0,29.08,SSW,202,0.0,-999.0,96,0.00,,,0.00,Rainwise IP-100,2013-02-20 09:00:00,
2013-02-20 01:05:00,29.0,28.0,29.08,SSW,202,0.0,-999.0,96,0.00,,,0.00,Rainwise IP-100,2013-02-20 09:05:00,
2013-02-20 01:10:00,28.7,28.0,29.08,SSW,202,0.0,-999.0,96,0.00,,,0.00,Rainwise IP-100,2013-02-20 09:10:00,
2013-02-20 01:15:00,28.3,26.0,29.08,SSW,202,0.0,-999.0,96,0.00,,,0.00,Rainwise IP-100,2013-02-20 09:15:00,
2013-02-20 01:20:00,27.9,26.0,29.08,SSW,202,0.0,-999.0,96,0.00,,,0.00,Rainwise IP-100,2013-02-20 09:20:00,
2013-02-20 01:25:00,27.8,26.0,29.08,SSW,202,0.0,-999.0,96,0.00,,,0.00,Rainwise IP-100,2013-02-20 09:25:00,
2013-02-20 01:30:00,27.7,26.0,29.08,SSW,202,0.0,-999.0,96,0.00,,,0.00,Rainwise IP-100,2013-02-20 09:30:00,
2013-02-20 01:35:00,27.7,28.0,29.09,SSW,202,1.9,-999.0,97,0.00,,,0.00,Rainwise IP-100,2013-02-20 09:35:00,
2013-02-20 01:40:00,27.6,28.0,29.09,SSW,202,1.2,-999.0,97,0.00,,,0.00,Rainwise IP-100,2013-02-20 09:40:00,
2013-02-20 01:45:00,27.9,28.0,29.09,SSW,202,0.0,-999.0,97,0.00,,,0.00,Rainwise IP-100,2013-02-20 09:45:00,
2013-02-20 01:50:00,28.4,28.0,29.09,SSW,202,0.0,-999.0,97,0.00,,,0.00,Rainwise IP-100,2013-02-20 09:50:00,
2013-02-20 01:55:00,28.7,29.0,29.09,SSW,202,0.0,-999.0,98,0.00,,,0.00,Rainwise IP-100,2013-02-20 09:55:00,
2013-02-20 02:01:00,28.5,29.0,29.09,SSW,202,0.0,-999.0,97,0.00,,,0.00,Rainwise IP-100,2013-02-20 10:01:00,
2013-02-20 02:06:00,27.9,28.0,29.10,SSW,202,1.6,-999.0,97,0.00,,,0.00,Rainwise IP-100,2013-02-20 10:06:00,
2013-02-20 02:11:00,27.7,28.0,29.10,SSW,202,0.0,-999.0,97,0.00,,,0.00,Rainwise IP-100,2013-02-20 10:11:00,
2013-02-20 02:16:00,27.7,28.0,29.10,SSW,202,0.0,-999.0,97,0.00,,,0.00,Rainwise IP-100,2013-02-20 10:16:00,
2013-02-20 02:21:00,27.7,28.0,29.10,SSW,202,0.0,-999.0,97,0.00,,,0.00,Rainwise IP-100,2013-02-20 10:21:00,
2013-02-20 02:26:00,27.5,28.0,29.10,SSW,202,0.0,-999.0,98,0.00,,,0.00,Rainwise IP-100,2013-02-20 10:26:00,
2013-02-20 02:31:00,27.3,28.0,29.10,SSW,202,0.0,-999.0,97,0.00,,,0.00,Rainwise IP-100,2013-02-20 10:31:00,
2013-02-20 02:36:00,27.2,28.0,29.10,SSW,202,1.6,-999.0,97,0.00,,,0.00,Rainwise IP-100,2013-02-20 10:36:00,
2013-02-20 02:41:00,27.3,28.0,29.10,SSW,202,0.0,-999.0,97,0.00,,,0.00,Rainwise IP-100,2013-02-20 10:41:00,
2013-02-20 02:46:00,27.5,28.0,29.10,SSW,202,0.0,-999.0,98,0.00,,,0.00,Rainwise IP-100,2013-02-20 10:46:00,
2013-02-20 02:51:00,27.6,28.0,29.10,SSW,202,0.0,-999.0,98,0.00,,,0.00,Rainwise IP-100,2013-02-20 10:51:00,
2013-02-20 02:56:00,27.4,28.0,29.10,SSW,202,0.0,-999.0,98,0.00,,,0.00,Rainwise IP-100,2013-02-20 10:56:00,
2013-02-20 03:01:00,27.2,28.0,29.10,SW,225,1.9,-999.0,98,0.00,,,0.00,Rainwise IP-100,2013-02-20 11:01:00,
2013-02-20 03:06:00,26.8,28.0,29.10,SW,225,0.0,-999.0,98,0.00,,,0.00,Rainwise IP-100,2013-02-20 11:06:00,
2013-02-20 03:11:00,26.8,28.0,29.10,SW,225,0.0,-999.0,98,0.00,,,0.00,Rainwise IP-100,2013-02-20 11:11:00,
2013-02-20 03:16:00,27.1,28.0,29.10,SW,225,0.0,-999.0,98,0.00,,,0.00,Rainwise IP-100,2013-02-20 11:16:00,
2013-02-20 03:21:00,26.9,28.0,29.10,SW,225,0.0,-999.0,98,0.00,,,0.00,Rainwise IP-100,2013-02-20 11:21:00,
2013-02-20 03:26:00,26.8,28.0,29.11,SW,225,1.9,-999.0,98,0.00,,,0.00,Rainwise IP-100,2013-02-20 11:26:00,
2013-02-20 03:31:00,26.9,28.0,29.11,SW,225,0.0,-999.0,98,0.00,,,0.00,Rainwise IP-100,2013-02-20 11:31:00,
2013-02-20 03:36:00,27.0,28.0,29.11,SW,225,0.0,-999.0,98,0.00,,,0.00,Rainwise IP-100,2013-02-20 11:36:00,
2013-02-20 03:41:00,26.9,28.0,29.12,SW,225,1.6,-999.0,98,0.00,,,0.00,Rainwise IP-100,2013-02-20 11:41:00,
2013-02-20 03:46:00,26.4,26.0,29.11,SW,225,1.9,-999.0,98,0.00,,,0.00,Rainwise IP-100,2013-02-20 11:46:00,
2013-02-20 03:51:00,26.4,26.0,29.11,SW,225,0.0,-999.0,98,0.00,,,0.00,Rainwise IP-100,2013-02-20 11:51:00,
2013-02-20 03:56:00,26.8,28.0,29.11,SW,225,0.0,-999.0,98,0.00,,,0.00,Rainwise IP-100,2013-02-20 11:56:00,
2013-02-20 04:01:00,26.8,28.0,29.11,SW,225,0.0,-999.0,99,0.00,,,0.00,Rainwise IP-100,2013-02-20 12:01:00,
2013-02-20 04:06:00,26.6,28.0,29.12,SW,225,0.0,-999.0,99,0.00,,,0.00,Rainwise IP-100,2013-02-20 12:06:00,
2013-02-20 04:11:00,26.4,26.0,29.12,SW,225,0.0,-999.0,99,0.00,,,0.00,Rainwise IP-100,2013-02-20 12:11:00,
2013-02-20 04:16:00,26.3,26.0,29.12,SW,225,0.0,-999.0,99,0.00,,,0.00,Rainwise IP-100,2013-02-20 12:16:00,
2013-02-20 04:21:00,26.3,26.0,29.12,SW,225,1.6,-999.0,99,0.00,,,0.00,Rainwise IP-100,2013-02-20 12:21:00,
2013-02-20 04:26:00,26.6,28.0,29.12,SW,225,0.0,-999.0,99,0.00,,,0.00,Rainwise IP-100,2013-02-20 12:26:00,
2013-02-20 04:31:00,26.8,28.0,29.12,SW,225,0.0,-999.0,99,0.00,,,0.00,Rainwise IP-100,2013-02-20 12:31:00,
2013-02-20 04:36:00,26.5,28.0,29.12,SW,225,0.0,-999.0,99,0.00,,,0.00,Rainwise IP-100,2013-02-20 12:36:00,
2013-02-20 04:41:00,26.5,28.0,29.13,SW,225,0.0,-999.0,99,0.00,,,0.00,Rainwise IP-100,2013-02-20 12:41:00,
2013-02-20 04:46:00,26.4,26.0,29.13,SW,225,0.0,-999.0,98,0.00,,,0.00,Rainwise IP-100,2013-02-20 12:46:00,
2013-02-20 04:51:00,26.1,26.0,29.14,SW,225,1.6,-999.0,98,0.00,,,0.00,Rainwise IP-100,2013-02-20 12:51:00,
2013-02-20 04:56:00,26.0,26.0,29.13,SW,225,1.9,-999.0,99,0.00,,,0.00,Rainwise IP-100,2013-02-20 12:56:00,
2013-02-20 05:01:00,25.8,26.0,29.13,SW,225,0.0,-999.0,99,0.00,,,0.00,Rainwise IP-100,2013-02-20 13:01:00,
2013-02-20 05:06:00,25.9,26.0,29.14,SW,225,0.0,-999.0,99,0.00,,,0.00,Rainwise IP-100,2013-02-20 13:06:00,
2013-02-20 05:11:00,26.0,26.0,29.14,SW,225,0.0,-999.0,99,0.00,,,0.00,Rainwise IP-100,2013-02-20 13:11:00,
2013-02-20 05:16:00,26.0,26.0,29.14,SW,225,0.0,-999.0,99,0.00,,,0.00,Rainwise IP-100,2013-02-20 13:16:00,
2013-02-20 05:21:00,25.9,26.0,29.14,SW,225,0.0,-999.0,99,0.00,,,0.00,Rainwise IP-100,2013-02-20 13:21:00,
2013-02-20 05:26:00,26.0,26.0,29.14,SW,225,0.0,-999.0,99,0.00,,,0.00,Rainwise IP-100,2013-02-20 13:26:00,
2013-02-20 05:31:00,26.2,26.0,29.14,SE,135,1.9,-999.0,99,0.00,,,0.00,Rainwise IP-100,2013-02-20 13:31:00,
2013-02-20 05:36:00,26.3,26.0,29.15,SE,135,1.6,-999.0,99,0.00,,,0.00,Rainwise IP-100,2013-02-20 13:36:00,
2013-02-20 05:41:00,26.1,26.0,29.15,ESE,112,0.0,-999.0,99,0.00,,,0.00,Rainwise IP-100,2013-02-20 13:41:00,
2013-02-20 05:46:00,26.2,26.0,29.15,ESE,112,0.0,-999.0,99,0.00,,,0.00,Rainwise IP-100,2013-02-20 13:46:00,
2013-02-20 05:51:00,26.1,26.0,29.15,ESE,112,0.0,-999.0,99,0.00,,,0.00,Rainwise IP-100,2013-02-20 13:51:00,
2013-02-20 05:56:00,25.8,26.0,29.15,SW,225,0.0,-999.0,99,0.00,,,0.00,Rainwise IP-100,2013-02-20 13:56:00,
2013-02-20 06:01:00,25.5,26.0,29.15,SW,225,1.2,-999.0,99,0.00,,,0.00,Rainwise IP-100,2013-02-20 14:01:00,
2013-02-20 06:06:00,25.5,26.0,29.15,SW,225,2.1,-999.0,99,0.00,,,0.00,Rainwise IP-100,2013-02-20 14:06:00,
2013-02-20 06:11:00,25.6,26.0,29.15,SSE,157,0.0,-999.0,99,0.00,,,0.00,Rainwise IP-100,2013-02-20 14:11:00,
2013-02-20 06:16:00,25.8,26.0,29.15,ESE,112,1.4,-999.0,99,0.00,,,0.00,Rainwise IP-100,2013-02-20 14:16:00,
2013-02-20 06:21:00,25.9,26.0,29.15,East,90,0.0,-999.0,99,0.00,,,0.00,Rainwise IP-100,2013-02-20 14:21:00,
2013-02-20 06:26:00,25.6,26.0,29.16,East,90,0.0,-999.0,99,0.00,,,0.00,Rainwise IP-100,2013-02-20 14:26:00,
2013-02-20 06:31:00,25.6,26.0,29.16,East,90,0.0,-999.0,99,0.00,,,0.00,Rainwise IP-100,2013-02-20 14:31:00,
2013-02-20 06:36:00,25.7,26.0,29.15,East,90,0.0,-999.0,99,0.00,,,0.00,Rainwise IP-100,2013-02-20 14:36:00,
2013-02-20 06:41:00,25.6,26.0,29.16,WSW,247,0.0,-999.0,99,0.00,,,0.00,Rainwise IP-100,2013-02-20 14:41:00,
2013-02-20 06:46:00,25.5,26.0,29.16,WSW,247,0.0,-999.0,99,0.00,,,0.00,Rainwise IP-100,2013-02-20 14:46:00,
2013-02-20 06:51:00,25.6,26.0,29.17,WSW,247,0.0,-999.0,99,0.00,,,0.00,Rainwise IP-100,2013-02-20 14:51:00,
2013-02-20 06:56:00,25.7,26.0,29.17,WSW,247,0.0,-999.0,99,0.00,,,0.00,Rainwise IP-100,2013-02-20 14:56:00,
2013-02-20 07:01:00,25.8,26.0,29.16,WSW,247,0.0,-999.0,99,0.00,,,0.00,Rainwise IP-100,2013-02-20 15:01:00,
2013-02-20 07:06:00,26.1,26.0,29.17,WSW,247,0.0,-999.0,99,0.00,,,0.00,Rainwise IP-100,2013-02-20 15:06:00,
2013-02-20 07:11:00,26.1,26.0,29.17,WSW,247,1.9,-999.0,99,0.00,,,0.00,Rainwise IP-100,2013-02-20 15:11:00,
2013-02-20 07:16:00,26.1,26.0,29.17,WSW,247,0.0,-999.0,99,0.00,,,0.00,Rainwise IP-100,2013-02-20 15:16:00,
2013-02-20 07:21:00,26.3,26.0,29.18,WSW,247,1.4,-999.0,99,0.00,,,0.00,Rainwise IP-100,2013-02-20 15:21:00,
2013-02-20 07:26:00,26.6,28.0,29.18,WSW,247,1.2,-999.0,99,0.00,,,0.00,Rainwise IP-100,2013-02-20 15:26:00,
2013-02-20 07:31:00,27.2,28.0,29.18,WSW,247,0.0,-999.0,99,0.00,,,0.00,Rainwise IP-100,2013-02-20 15:31:00,
2013-02-20 07:36:00,28.3,28.0,29.19,WSW,247,0.0,-999.0,99,0.00,,,0.00,Rainwise IP-100,2013-02-20 15:36:00,
2013-02-20 07:41:00,29.3,29.0,29.19,WSW,247,0.0,-999.0,100,0.00,,,0.00,Rainwise IP-100,2013-02-20 15:41:00,
2013-02-20 07:46:00,29.9,31.0,29.19,WSW,247,0.0,-999.0,99,0.00,,,0.00,Rainwise IP-100,2013-02-20 15:46:00,
2013-02-20 07:51:00,29.9,31.0,29.19,ENE,67,1.4,-999.0,98,0.00,,,0.00,Rainwise IP-100,2013-02-20 15:51:00,
2013-02-20 07:56:00,30.0,29.0,29.20,ENE,67,1.9,-999.0,97,0.00,,,0.00,Rainwise IP-100,2013-02-20 15:56:00,
2013-02-20 08:01:00,30.8,31.0,29.20,ENE,67,0.0,-999.0,98,0.00,,,0.00,Rainwise IP-100,2013-02-20 16:01:00,
2013-02-20 08:06:00,31.8,32.0,29.20,ENE,67,0.0,-999.0,98,0.00,,,0.00,Rainwise IP-100,2013-02-20 16:06:00,
2013-02-20 08:11:00,32.5,33.0,29.20,ENE,67,0.0,-999.0,99,0.00,,,0.00,Rainwise IP-100,2013-02-20 16:11:00,
2013-02-20 08:16:00,33.0,33.0,29.21,ENE,67,0.0,-999.0,99,0.00,,,0.00,Rainwise IP-100,2013-02-20 16:16:00,
2013-02-20 08:21:00,33.7,35.0,29.21,ENE,67,0.0,-999.0,99,0.00,,,0.00,Rainwise IP-100,2013-02-20 16:21:00,
2013-02-20 08:26:00,34.2,35.0,29.20,East,90,2.1,-999.0,99,0.00,,,0.00,Rainwise IP-100,2013-02-20 16:26:00,
2013-02-20 08:31:00,34.6,35.0,29.20,South,180,1.6,-999.0,98,0.00,,,0.00,Rainwise IP-100,2013-02-20 16:31:00,
2013-02-20 08:36:00,35.3,33.0,29.21,SSW,202,0.0,-999.0,97,0.00,,,0.00,Rainwise IP-100,2013-02-20 16:36:00,
2013-02-20 08:41:00,36.2,36.0,29.21,SSW,202,0.0,-999.0,98,0.00,,,0.00,Rainwise IP-100,2013-02-20 16:41:00,
2013-02-20 08:46:00,36.8,36.0,29.21,SSE,157,0.0,-999.0,96,0.00,,,0.00,Rainwise IP-100,2013-02-20 16:46:00,
2013-02-20 08:51:00,37.8,36.0,29.22,SSE,157,1.4,-999.0,93,0.00,,,0.00,Rainwise IP-100,2013-02-20 16:51:00,
2013-02-20 08:56:00,38.8,37.0,29.22,SSE,157,1.2,-999.0,91,0.00,,,0.00,Rainwise IP-100,2013-02-20 16:56:00,
2013-02-20 09:01:00,39.8,37.0,29.22,SSE,157,0.0,-999.0,89,0.00,,,0.00,Rainwise IP-100,2013-02-20 17:01:00,
2013-02-20 09:06:00,40.7,38.0,29.22,SE,135,1.4,-999.0,87,0.00,,,0.00,Rainwise IP-100,2013-02-20 17:06:00,
2013-02-20 09:11:00,41.1,37.0,29.22,ESE,112,1.4,-999.0,85,0.00,,,0.00,Rainwise IP-100,2013-02-20 17:11:00,
2013-02-20 09:16:00,41.4,37.0,29.22,SSE,157,2.1,-999.0,83,0.00,,,0.00,Rainwise IP-100,2013-02-20 17:16:00,
2013-02-20 09:21:00,42.5,37.0,29.22,SSE,157,1.6,-999.0,80,0.00,,,0.00,Rainwise IP-100,2013-02-20 17:21:00,
2013-02-20 09:26:00,42.8,37.0,29.22,SSE,157,2.1,-999.0,77,0.00,,,0.00,Rainwise IP-100,2013-02-20 17:26:00,
2013-02-20 09:31:00,42.9,37.0,29.22,ESE,112,1.2,-999.0,77,0.00,,,0.00,Rainwise IP-100,2013-02-20 17:31:00,
2013-02-20 09:36:00,43.9,37.0,29.23,ESE,112,3.7,-999.0,76,0.00,,,0.00,Rainwise IP-100,2013-02-20 17:36:00,
2013-02-20 09:41:00,44.4,36.0,29.23,SSW,202,3.7,-999.0,73,0.00,,,0.00,Rainwise IP-100,2013-02-20 17:41:00,
2013-02-20 09:46:00,45.8,37.0,29.22,NW,315,0.0,-999.0,70,0.00,,,0.00,Rainwise IP-100,2013-02-20 17:46:00,
2013-02-20 09:51:00,48.7,38.0,29.23,NNW,337,3.5,-999.0,65,0.00,,,0.00,Rainwise IP-100,2013-02-20 17:51:00,
2013-02-20 09:56:00,51.0,37.0,29.23,NNW,337,0.0,-999.0,57,0.00,,,0.00,Rainwise IP-100,2013-02-20 17:56:00,
2013-02-20 10:01:00,52.5,35.0,29.22,NNW,337,4.0,-999.0,51,0.00,,,0.00,Rainwise IP-100,2013-02-20 18:01:00,
2013-02-20 10:06:00,53.2,33.0,29.23,NNW,337,3.5,-999.0,48,0.00,,,0.00,Rainwise IP-100,2013-02-20 18:06:00,
2013-02-20 10:11:00,53.3,33.0,29.23,NNW,337,4.9,-999.0,46,0.00,,,0.00,Rainwise IP-100,2013-02-20 18:11:00,
2013-02-20 10:16:00,53.3,32.0,29.22,WNW,292,3.3,-999.0,45,0.00,,,0.00,Rainwise IP-100,2013-02-20 18:16:00,
2013-02-20 10:21:00,53.5,32.0,29.23,North,360,8.9,-999.0,44,0.00,,,0.00,Rainwise IP-100,2013-02-20 18:21:00,
2013-02-20 10:26:00,53.8,32.0,29.23,NNW,337,6.1,-999.0,43,0.00,,,0.00,Rainwise IP-100,2013-02-20 18:26:00,
2013-02-20 10:31:00,54.0,32.0,29.23,NNW,337,1.9,-999.0,42,0.00,,,0.00,Rainwise IP-100,2013-02-20 18:31:00,
2013-02-20 10:36:00,54.2,32.0,29.23,NNE,22,5.1,-999.0,43,0.00,,,0.00,Rainwise IP-100,2013-02-20 18:36:00,
2013-02-20 10:41:00,53.9,32.0,29.22,NNE,22,7.2,-999.0,42,0.00,,,0.00,Rainwise IP-100,2013-02-20 18:41:00,
2013-02-20 10:46:00,53.6,29.0,29.23,NNW,337,4.2,-999.0,40,0.00,,,0.00,Rainwise IP-100,2013-02-20 18:46:00,
2013-02-20 10:52:00,54.0,31.0,29.23,NNW,337,3.7,-999.0,40,0.00,,,0.00,Rainwise IP-100,2013-02-20 18:52:00,
2013-02-20 10:57:00,54.5,31.0,29.23,NNW,337,1.6,-999.0,40,0.00,,,0.00,Rainwise IP-100,2013-02-20 18:57:00,
2013-02-20 11:02:00,54.6,29.0,29.23,NNW,337,4.4,-999.0,38,0.00,,,0.00,Rainwise IP-100,2013-02-20 19:02:00,
2013-02-20 11:07:00,55.0,29.0,29.23,NNW,337,5.4,-999.0,37,0.00,,,0.00,Rainwise IP-100,2013-02-20 19:07:00,
2013-02-20 11:12:00,55.1,29.0,29.23,NNW,337,2.8,-999.0,37,0.00,,,0.00,Rainwise IP-100,2013-02-20 19:12:00,
2013-02-20 11:17:00,55.4,29.0,29.23,NNW,337,1.6,-999.0,37,0.00,,,0.00,Rainwise IP-100,2013-02-20 19:17:00,
2013-02-20 11:22:00,56.0,31.0,29.23,WNW,292,1.6,-999.0,37,0.00,,,0.00,Rainwise IP-100,2013-02-20 19:22:00,
2013-02-20 11:28:00,56.4,31.0,29.23,North,360,3.7,-999.0,37,0.00,,,0.00,Rainwise IP-100,2013-02-20 19:28:00,
2013-02-20 11:33:00,56.7,31.0,29.22,NNW,337,2.8,-999.0,37,0.00,,,0.00,Rainwise IP-100,2013-02-20 19:33:00,
2013-02-20 11:38:00,57.4,32.0,29.22,NW,315,2.8,-999.0,37,0.00,,,0.00,Rainwise IP-100,2013-02-20 19:38:00,
2013-02-20 11:43:00,57.5,32.0,29.22,WNW,292,0.0,-999.0,37,0.00,,,0.00,Rainwise IP-100,2013-02-20 19:43:00,
2013-02-20 11:48:00,57.5,31.0,29.22,NW,315,2.3,-999.0,36,0.00,,,0.00,Rainwise IP-100,2013-02-20 19:48:00,
2013-02-20 11:53:00,57.8,32.0,29.22,West,270,8.4,-999.0,37,0.00,,,0.00,Rainwise IP-100,2013-02-20 19:53:00,
2013-02-20 11:58:00,57.7,32.0,29.22,WNW,292,1.2,-999.0,37,0.00,,,0.00,Rainwise IP-100,2013-02-20 19:58:00,
2013-02-20 12:03:00,57.7,32.0,29.22,WSW,247,1.2,-999.0,37,0.00,,,0.00,Rainwise IP-100,2013-02-20 20:03:00,
2013-02-20 12:08:00,57.9,32.0,29.23,West,270,3.0,-999.0,37,0.00,,,0.00,Rainwise IP-100,2013-02-20 20:08:00,
2013-02-20 12:13:00,58.2,32.0,29.23,NNW,337,1.9,-999.0,37,0.00,,,0.00,Rainwise IP-100,2013-02-20 20:13:00,
2013-02-20 12:18:00,58.3,31.0,29.23,NNW,337,1.2,-999.0,35,0.00,,,0.00,Rainwise IP-100,2013-02-20 20:18:00,
2013-02-20 12:23:00,58.5,31.0,29.23,WNW,292,1.9,-999.0,34,0.00,,,0.00,Rainwise IP-100,2013-02-20 20:23:00,
2013-02-20 12:28:00,58.7,31.0,29.22,NNW,337,0.0,-999.0,34,0.00,,,0.00,Rainwise IP-100,2013-02-20 20:28:00,
2013-02-20 12:33:00,58.8,32.0,29.22,WNW,292,2.1,-999.0,35,0.00,,,0.00,Rainwise IP-100,2013-02-20 20:33:00,
2013-02-20 12:38:00,58.8,31.0,29.22,NW,315,1.9,-999.0,34,0.00,,,0.00,Rainwise IP-100,2013-02-20 20:38:00,
2013-02-20 12:43:00,59.1,31.0,29.22,NNW,337,2.6,-999.0,34,0.00,,,0.00,Rainwise IP-100,2013-02-20 20:43:00,
2013-02-20 12:48:00,59.5,31.0,29.22,WNW,292,1.2,-999.0,34,0.00,,,0.00,Rainwise IP-100,2013-02-20 20:48:00,
2013-02-20 12:53:00,59.5,31.0,29.21,WNW,292,1.6,-999.0,34,0.00,,,0.00,Rainwise IP-100,2013-02-20 20:53:00,
2013-02-20 12:58:00,59.4,31.0,29.21,NNW,337,1.4,-999.0,33,0.00,,,0.00,Rainwise IP-100,2013-02-20 20:58:00,
2013-02-20 13:03:00,59.2,31.0,29.21,WSW,247,0.0,-999.0,33,0.00,,,0.00,Rainwise IP-100,2013-02-20 21:03:00,
2013-02-20 13:08:00,59.3,31.0,29.20,NNW,337,0.0,-999.0,33,0.00,,,0.00,Rainwise IP-100,2013-02-20 21:08:00,
2013-02-20 13:13:00,59.8,31.0,29.21,NNW,337,3.0,-999.0,33,0.00,,,0.00,Rainwise IP-100,2013-02-20 21:13:00,
2013-02-20 13:18:00,59.7,29.0,29.21,North,360,4.7,-999.0,32,0.00,,,0.00,Rainwise IP-100,2013-02-20 21:18:00,
2013-02-20 13:23:00,59.5,29.0,29.21,NW,315,1.2,-999.0,32,0.00,,,0.00,Rainwise IP-100,2013-02-20 21:23:00,
2013-02-20 13:28:00,59.9,31.0,29.21,West,270,3.0,-999.0,32,0.00,,,0.00,Rainwise IP-100,2013-02-20 21:28:00,
2013-02-20 13:33:00,60.2,31.0,29.21,NNE,22,1.4,-999.0,32,0.00,,,0.00,Rainwise IP-100,2013-02-20 21:33:00,
2013-02-20 13:38:00,60.4,31.0,29.20,NNW,337,2.6,-999.0,32,0.00,,,0.00,Rainwise IP-100,2013-02-20 21:38:00,
2013-02-20 13:43:00,60.7,29.0,29.20,North,360,2.6,-999.0,31,0.00,,,0.00,Rainwise IP-100,2013-02-20 21:43:00,
2013-02-20 13:48:00,61.0,29.0,29.20,WNW,292,2.6,-999.0,30,0.00,,,0.00,Rainwise IP-100,2013-02-20 21:48:00,
2013-02-20 13:53:00,60.9,29.0,29.20,West,270,2.8,-999.0,30,0.00,,,0.00,Rainwise IP-100,2013-02-20 21:53:00,
2013-02-20 13:58:00,60.5,29.0,29.20,WSW,247,6.1,-999.0,30,0.00,,,0.00,Rainwise IP-100,2013-02-20 21:58:00,
2013-02-20 14:03:00,60.4,29.0,29.20,NW,315,0.0,-999.0,31,0.00,,,0.00,Rainwise IP-100,2013-02-20 22:03:00,
2013-02-20 14:08:00,60.6,29.0,29.19,WSW,247,2.8,-999.0,31,0.00,,,0.00,Rainwise IP-100,2013-02-20 22:08:00,
2013-02-20 14:13:00,60.9,31.0,29.19,WSW,247,1.9,-999.0,31,0.00,,,0.00,Rainwise IP-100,2013-02-20 22:13:00,
2013-02-20 14:18:00,61.1,31.0,29.20,WNW,292,3.7,-999.0,31,0.00,,,0.00,Rainwise IP-100,2013-02-20 22:18:00,
2013-02-20 14:23:00,61.2,29.0,29.20,NNW,337,2.8,-999.0,30,0.00,,,0.00,Rainwise IP-100,2013-02-20 22:23:00,
2013-02-20 14:28:00,61.3,31.0,29.20,NNE,22,4.7,-999.0,31,0.00,,,0.00,Rainwise IP-100,2013-02-20 22:28:00,
2013-02-20 14:33:00,61.3,31.0,29.19,NNW,337,2.1,-999.0,30,0.00,,,0.00,Rainwise IP-100,2013-02-20 22:33:00,
2013-02-20 14:38:00,60.9,29.0,29.20,NNE,22,0.0,-999.0,29,0.00,,,0.00,Rainwise IP-100,2013-02-20 22:38:00,
2013-02-20 14:43:00,61.0,29.0,29.19,WNW,292,4.0,-999.0,29,0.00,,,0.00,Rainwise IP-100,2013-02-20 22:43:00,
2013-02-20 14:48:00,61.3,31.0,29.19,North,360,0.0,-999.0,30,0.00,,,0.00,Rainwise IP-100,2013-02-20 22:48:00,
2013-02-20 14:53:00,61.5,29.0,29.20,North,360,7.0,-999.0,29,0.00,,,0.00,Rainwise IP-100,2013-02-20 22:53:00,
2013-02-20 14:58:00,61.4,29.0,29.19,WNW,292,0.0,-999.0,29,0.00,,,0.00,Rainwise IP-100,2013-02-20 22:58:00,
2013-02-20 15:03:00,61.1,29.0,29.19,WSW,247,1.6,-999.0,29,0.00,,,0.00,Rainwise IP-100,2013-02-20 23:03:00,
2013-02-20 15:08:00,61.3,31.0,29.19,West,270,0.0,-999.0,30,0.00,,,0.00,Rainwise IP-100,2013-02-20 23:08:00,
2013-02-20 15:13:00,61.7,31.0,29.19,NNW,337,3.5,-999.0,30,0.00,,,0.00,Rainwise IP-100,2013-02-20 23:13:00,
2013-02-20 15:18:00,61.9,31.0,29.19,NNW,337,4.4,-999.0,30,0.00,,,0.00,Rainwise IP-100,2013-02-20 23:18:00,
2013-02-20 15:23:00,62.0,29.0,29.20,NNW,337,0.0,-999.0,29,0.00,,,0.00,Rainwise IP-100,2013-02-20 23:23:00,
2013-02-20 15:28:00,61.8,29.0,29.20,NNW,337,2.6,-999.0,28,0.00,,,0.00,Rainwise IP-100,2013-02-20 23:28:00,
2013-02-20 15:33:00,61.3,29.0,29.20,NNW,337,4.0,-999.0,29,0.00,,,0.00,Rainwise IP-100,2013-02-20 23:33:00,
2013-02-20 15:38:00,61.0,29.0,29.20,WNW,292,0.0,-999.0,29,0.00,,,0.00,Rainwise IP-100,2013-02-20 23:38:00,
2013-02-20 15:43:00,61.2,29.0,29.20,NNW,337,2.8,-999.0,29,0.00,,,0.00,Rainwise IP-100,2013-02-20 23:43:00,
2013-02-20 15:48:00,61.0,29.0,29.20,NNW,337,1.6,-999.0,30,0.00,,,0.00,Rainwise IP-100,2013-02-20 23:48:00,
2013-02-20 15:53:00,61.1,29.0,29.20,WNW,292,0.0,-999.0,30,0.00,,,0.00,Rainwise IP-100,2013-02-20 23:53:00,
2013-02-20 15:58:00,61.0,31.0,29.20,NNW,337,0.0,-999.0,31,0.00,,,0.00,Rainwise IP-100,2013-02-20 23:58:00,
2013-02-20 16:03:00,61.2,31.0,29.20,NNW,337,0.0,-999.0,31,0.00,,,0.00,Rainwise IP-100,2013-02-21 00:03:00,
2013-02-20 16:08:00,61.3,32.0,29.20,North,360,0.0,-999.0,32,0.00,,,0.00,Rainwise IP-100,2013-02-21 00:08:00,
2013-02-20 16:13:00,60.9,31.0,29.20,North,360,0.0,-999.0,31,0.00,,,0.00,Rainwise IP-100,2013-02-21 00:13:00,
2013-02-20 16:18:00,61.0,31.0,29.20,NNW,337,3.3,-999.0,31,0.00,,,0.00,Rainwise IP-100,2013-02-21 00:18:00,
2013-02-20 16:23:00,61.0,31.0,29.20,WNW,292,0.0,-999.0,31,0.00,,,0.00,Rainwise IP-100,2013-02-21 00:23:00,
2013-02-20 16:28:00,60.7,29.0,29.20,NNW,337,1.4,-999.0,30,0.00,,,0.00,Rainwise IP-100,2013-02-21 00:28:00,
2013-02-20 16:33:00,60.8,31.0,29.20,NNW,337,1.2,-999.0,31,0.00,,,0.00,Rainwise IP-100,2013-02-21 00:33:00,
2013-02-20 16:38:00,60.8,31.0,29.20,NNW,337,1.2,-999.0,32,0.00,,,0.00,Rainwise IP-100,2013-02-21 00:38:00,
2013-02-20 16:43:00,60.7,31.0,29.21,NNW,337,1.9,-999.0,32,0.00,,,0.00,Rainwise IP-100,2013-02-21 00:43:00,
2013-02-20 16:48:00,60.6,31.0,29.20,NNW,337,2.1,-999.0,32,0.00,,,0.00,Rainwise IP-100,2013-02-21 00:48:00,
2013-02-20 16:53:00,60.6,31.0,29.20,NNW,337,0.0,-999.0,33,0.00,,,0.00,Rainwise IP-100,2013-02-21 00:53:00,
2013-02-20 16:58:00,60.5,32.0,29.20,NNW,337,0.0,-999.0,34,0.00,,,0.00,Rainwise IP-100,2013-02-21 00:58:00,
2013-02-20 17:03:00,59.6,32.0,29.21,WNW,292,0.0,-999.0,36,0.00,,,0.00,Rainwise IP-100,2013-02-21 01:03:00,
2013-02-20 17:08:00,58.2,32.0,29.21,WNW,292,0.0,-999.0,37,0.00,,,0.00,Rainwise IP-100,2013-02-21 01:08:00,
2013-02-20 17:13:00,57.1,32.0,29.21,WNW,292,1.2,-999.0,39,0.00,,,0.00,Rainwise IP-100,2013-02-21 01:13:00,
2013-02-20 17:18:00,55.8,32.0,29.22,WNW,292,0.0,-999.0,41,0.00,,,0.00,Rainwise IP-100,2013-02-21 01:18:00,
2013-02-20 17:23:00,54.3,33.0,29.22,WNW,292,0.0,-999.0,44,0.00,,,0.00,Rainwise IP-100,2013-02-21 01:23:00,
2013-02-20 17:28:00,52.9,32.0,29.22,WNW,292,0.0,-999.0,46,0.00,,,0.00,Rainwise IP-100,2013-02-21 01:28:00,
2013-02-20 17:33:00,51.6,33.0,29.22,WNW,292,0.0,-999.0,48,0.00,,,0.00,Rainwise IP-100,2013-02-21 01:33:00,
2013-02-20 17:38:00,50.6,33.0,29.22,WNW,292,0.0,-999.0,50,0.00,,,0.00,Rainwise IP-100,2013-02-21 01:38:00,
2013-02-20 17:43:00,49.7,32.0,29.21,WNW,292,0.0,-999.0,51,0.00,,,0.00,Rainwise IP-100,2013-02-21 01:43:00,
2013-02-20 17:48:00,48.9,33.0,29.22,WNW,292,0.0,-999.0,53,0.00,,,0.00,Rainwise IP-100,2013-02-21 01:48:00,
2013-02-20 17:53:00,48.1,33.0,29.21,WNW,292,1.2,-999.0,55,0.00,,,0.00,Rainwise IP-100,2013-02-21 01:53:00,
2013-02-20 17:58:00,47.5,32.0,29.21,WNW,292,0.0,-999.0,56,0.00,,,0.00,Rainwise IP-100,2013-02-21 01:58:00,
2013-02-20 18:03:00,47.0,33.0,29.21,WNW,292,0.0,-999.0,58,0.00,,,0.00,Rainwise IP-100,2013-02-21 02:03:00,
2013-02-20 18:08:00,46.5,33.0,29.21,WNW,292,0.0,-999.0,59,0.00,,,0.00,Rainwise IP-100,2013-02-21 02:08:00,
2013-02-20 18:13:00,45.9,33.0,29.21,WNW,292,0.0,-999.0,61,0.00,,,0.00,Rainwise IP-100,2013-02-21 02:13:00,
2013-02-20 18:18:00,45.4,33.0,29.22,WNW,292,0.0,-999.0,62,0.00,,,0.00,Rainwise IP-100,2013-02-21 02:18:00,
2013-02-20 18:23:00,45.0,33.0,29.22,WNW,292,0.0,-999.0,63,0.00,,,0.00,Rainwise IP-100,2013-02-21 02:23:00,
2013-02-20 18:28:00,44.6,33.0,29.22,WNW,292,0.0,-999.0,64,0.00,,,0.00,Rainwise IP-100,2013-02-21 02:28:00,
2013-02-20 18:33:00,44.2,33.0,29.22,WNW,292,0.0,-999.0,65,0.00,,,0.00,Rainwise IP-100,2013-02-21 02:33:00,
2013-02-20 18:38:00,44.0,33.0,29.23,WNW,292,0.0,-999.0,66,0.00,,,0.00,Rainwise IP-100,2013-02-21 02:38:00,
2013-02-20 18:43:00,43.8,33.0,29.23,WNW,292,0.0,-999.0,66,0.00,,,0.00,Rainwise IP-100,2013-02-21 02:43:00,
2013-02-20 18:48:00,43.7,33.0,29.23,WNW,292,0.0,-999.0,67,0.00,,,0.00,Rainwise IP-100,2013-02-21 02:48:00,
2013-02-20 18:53:00,43.6,33.0,29.23,WNW,292,0.0,-999.0,67,0.00,,,0.00,Rainwise IP-100,2013-02-21 02:53:00,
2013-02-20 18:58:00,43.3,33.0,29.23,WNW,292,1.9,-999.0,68,0.00,,,0.00,Rainwise IP-100,2013-02-21 02:58:00,
2013-02-20 19:03:00,43.0,33.0,29.23,WNW,292,0.0,-999.0,69,0.00,,,0.00,Rainwise IP-100,2013-02-21 03:03:00,
2013-02-20 19:08:00,42.8,35.0,29.24,WNW,292,0.0,-999.0,70,0.00,,,0.00,Rainwise IP-100,2013-02-21 03:08:00,
2013-02-20 19:13:00,42.5,35.0,29.24,WNW,292,1.4,-999.0,71,0.00,,,0.00,Rainwise IP-100,2013-02-21 03:13:00,
2013-02-20 19:18:00,42.1,33.0,29.24,WNW,292,1.6,-999.0,71,0.00,,,0.00,Rainwise IP-100,2013-02-21 03:18:00,
2013-02-20 19:23:00,42.0,33.0,29.25,WNW,292,0.0,-999.0,72,0.00,,,0.00,Rainwise IP-100,2013-02-21 03:23:00,
2013-02-20 19:28:00,42.1,33.0,29.25,WNW,292,0.0,-999.0,72,0.00,,,0.00,Rainwise IP-100,2013-02-21 03:28:00,
2013-02-20 19:33:00,42.1,33.0,29.25,WNW,292,0.0,-999.0,72,0.00,,,0.00,Rainwise IP-100,2013-02-21 03:33:00,
2013-02-20 19:38:00,42.3,33.0,29.25,WNW,292,0.0,-999.0,71,0.00,,,0.00,Rainwise IP-100,2013-02-21 03:38:00,
2013-02-20 19:43:00,43.3,35.0,29.25,NNW,337,0.0,-999.0,70,0.00,,,0.00,Rainwise IP-100,2013-02-21 03:43:00,
2013-02-20 19:48:00,44.5,35.0,29.25,NNW,337,1.4,-999.0,68,0.00,,,0.00,Rainwise IP-100,2013-02-21 03:48:00,
2013-02-20 19:53:00,44.4,33.0,29.25,West,270,3.3,-999.0,67,0.00,,,0.00,Rainwise IP-100,2013-02-21 03:53:00,
2013-02-20 19:58:00,43.2,33.0,29.25,West,270,0.0,-999.0,69,0.00,,,0.00,Rainwise IP-100,2013-02-21 03:58:00,
2013-02-20 20:03:00,42.5,35.0,29.25,West,270,2.8,-999.0,70,0.00,,,0.00,Rainwise IP-100,2013-02-21 04:03:00,
2013-02-20 20:08:00,42.2,33.0,29.25,WSW,247,2.3,-999.0,71,0.00,,,0.00,Rainwise IP-100,2013-02-21 04:08:00,
2013-02-20 20:13:00,42.1,33.0,29.25,WSW,247,0.0,-999.0,72,0.00,,,0.00,Rainwise IP-100,2013-02-21 04:13:00,
2013-02-20 20:18:00,42.1,33.0,29.25,WSW,247,1.9,-999.0,72,0.00,,,0.00,Rainwise IP-100,2013-02-21 04:18:00,
2013-02-20 20:23:00,41.5,35.0,29.25,WSW,247,0.0,-999.0,73,0.00,,,0.00,Rainwise IP-100,2013-02-21 04:23:00,
2013-02-20 20:28:00,40.9,33.0,29.26,WSW,247,0.0,-999.0,74,0.00,,,0.00,Rainwise IP-100,2013-02-21 04:28:00,
2013-02-20 20:33:00,40.8,35.0,29.25,WSW,247,0.0,-999.0,75,0.00,,,0.00,Rainwise IP-100,2013-02-21 04:33:00,
2013-02-20 20:38:00,40.5,35.0,29.25,WNW,292,1.2,-999.0,75,0.00,,,0.00,Rainwise IP-100,2013-02-21 04:38:00,
2013-02-20 20:43:00,39.9,33.0,29.25,WNW,292,0.0,-999.0,75,0.00,,,0.00,Rainwise IP-100,2013-02-21 04:43:00,
2013-02-20 20:48:00,39.5,33.0,29.25,WNW,292,0.0,-999.0,77,0.00,,,0.00,Rainwise IP-100,2013-02-21 04:48:00,
2013-02-20 20:53:00,39.0,33.0,29.26,SSE,157,0.0,-999.0,78,0.00,,,0.00,Rainwise IP-100,2013-02-21 04:53:00,
2013-02-20 20:58:00,38.5,33.0,29.26,WSW,247,0.0,-999.0,79,0.00,,,0.00,Rainwise IP-100,2013-02-21 04:58:00,
2013-02-20 21:00:00,38.5,33.0,29.26,WSW,247,0.0,-999.0,79,0.00,,,0.00,Rainwise IP-100,2013-02-21 05:00:00,
2013-02-20 21:05:00,38.5,33.0,29.26,WSW,247,2.1,-999.0,80,0.00,,,0.00,Rainwise IP-100,2013-02-21 05:05:00,
2013-02-20 21:10:00,38.3,32.0,29.27,WSW,247,1.2,-999.0,80,0.00,,,0.00,Rainwise IP-100,2013-02-21 05:10:00,
2013-02-20 21:15:00,37.9,33.0,29.27,WSW,247,1.6,-999.0,81,0.00,,,0.00,Rainwise IP-100,2013-02-21 05:15:00,
2013-02-20 21:20:00,37.6,33.0,29.27,WSW,247,2.1,-999.0,81,0.00,,,0.00,Rainwise IP-100,2013-02-21 05:20:00,
2013-02-20 21:25:00,37.8,33.0,29.27,WSW,247,1.4,-999.0,82,0.00,,,0.00,Rainwise IP-100,2013-02-21 05:25:00,
2013-02-20 21:30:00,38.0,33.0,29.27,WSW,247,0.0,-999.0,83,0.00,,,0.00,Rainwise IP-100,2013-02-21 05:30:00,
2013-02-20 21:35:00,37.8,33.0,29.27,SW,225,0.0,-999.0,83,0.00,,,0.00,Rainwise IP-100,2013-02-21 05:35:00,
2013-02-20 21:40:00,38.0,33.0,29.27,SSE,157,0.0,-999.0,83,0.00,,,0.00,Rainwise IP-100,2013-02-21 05:40:00,
2013-02-20 21:45:00,37.7,33.0,29.27,SSW,202,0.0,-999.0,83,0.00,,,0.00,Rainwise IP-100,2013-02-21 05:45:00,
2013-02-20 21:50:00,37.1,32.0,29.27,SSW,202,0.0,-999.0,83,0.00,,,0.00,Rainwise IP-100,2013-02-21 05:50:00,
2013-02-20 21:55:00,36.8,32.0,29.27,WSW,247,1.2,-999.0,84,0.00,,,0.00,Rainwise IP-100,2013-02-21 05:55:00,
2013-02-20 21:57:00,36.8,33.0,29.27,WNW,292,0.0,-999.0,85,0.00,,,0.00,Rainwise IP-100,2013-02-21 05:57:00,
2013-02-20 21:58:00,36.8,33.0,29.27,WNW,292,0.0,-999.0,85,0.00,,,0.00,Rainwise IP-100,2013-02-21 05:58:00,
2013-02-20 22:03:00,36.7,33.0,29.27,SSW,202,1.9,-999.0,85,0.00,,,0.00,Rainwise IP-100,2013-02-21 06:03:00,
2013-02-20 22:08:00,36.3,32.0,29.27,SSW,202,0.0,-999.0,85,0.00,,,0.00,Rainwise IP-100,2013-02-21 06:08:00,
2013-02-20 22:13:00,36.1,32.0,29.27,SW,225,2.8,-999.0,85,0.00,,,0.00,Rainwise IP-100,2013-02-21 06:13:00,
2013-02-20 22:18:00,36.0,32.0,29.27,WNW,292,0.0,-999.0,86,0.00,,,0.00,Rainwise IP-100,2013-02-21 06:18:00,
2013-02-20 22:23:00,35.7,32.0,29.27,WNW,292,0.0,-999.0,86,0.00,,,0.00,Rainwise IP-100,2013-02-21 06:23:00,
2013-02-20 22:28:00,35.4,31.0,29.27,WNW,292,0.0,-999.0,86,0.00,,,0.00,Rainwise IP-100,2013-02-21 06:28:00,
2013-02-20 22:33:00,35.3,31.0,29.27,WNW,292,1.4,-999.0,86,0.00,,,0.00,Rainwise IP-100,2013-02-21 06:33:00,
2013-02-20 22:38:00,35.1,31.0,29.27,WNW,292,1.4,-999.0,87,0.00,,,0.00,Rainwise IP-100,2013-02-21 06:38:00,
2013-02-20 22:43:00,34.9,31.0,29.27,WNW,292,0.0,-999.0,87,0.00,,,0.00,Rainwise IP-100,2013-02-21 06:43:00,
2013-02-20 22:48:00,35.0,32.0,29.27,ESE,112,0.0,-999.0,88,0.00,,,0.00,Rainwise IP-100,2013-02-21 06:48:00,
2013-02-20 22:53:00,34.9,32.0,29.27,SSW,202,0.0,-999.0,88,0.00,,,0.00,Rainwise IP-100,2013-02-21 06:53:00,
2013-02-20 22:58:00,34.7,32.0,29.27,SSW,202,0.0,-999.0,89,0.00,,,0.00,Rainwise IP-100,2013-02-21 06:58:00,
2013-02-20 23:03:00,34.5,32.0,29.27,SW,225,2.8,-999.0,89,0.00,,,0.00,Rainwise IP-100,2013-02-21 07:03:00,
2013-02-20 23:08:00,34.6,32.0,29.27,SW,225,0.0,-999.0,89,0.00,,,0.00,Rainwise IP-100,2013-02-21 07:08:00,
2013-02-20 23:13:00,35.0,32.0,29.27,SW,225,0.0,-999.0,89,0.00,,,0.00,Rainwise IP-100,2013-02-21 07:13:00,
2013-02-20 23:18:00,35.1,32.0,29.27,SW,225,0.0,-999.0,89,0.00,,,0.00,Rainwise IP-100,2013-02-21 07:18:00,
2013-02-20 23:24:00,34.8,32.0,29.27,SW,225,0.0,-999.0,89,0.00,,,0.00,Rainwise IP-100,2013-02-21 07:24:00,
2013-02-20 23:29:00,34.5,32.0,29.27,SW,225,0.0,-999.0,90,0.00,,,0.00,Rainwise IP-100,2013-02-21 07:29:00,
2013-02-20 23:34:00,34.1,32.0,29.27,SW,225,0.0,-999.0,90,0.00,,,0.00,Rainwise IP-100,2013-02-21 07:34:00,
2013-02-20 23:39:00,33.6,32.0,29.27,SW,225,0.0,-999.0,90,0.00,,,0.00,Rainwise IP-100,2013-02-21 07:39:00,
2013-02-20 23:44:00,33.2,31.0,29.27,SW,225,0.0,-999.0,90,0.00,,,0.00,Rainwise IP-100,2013-02-21 07:44:00,
2013-02-20 23:49:00,33.0,31.0,29.27,SW,225,1.6,-999.0,91,0.00,,,0.00,Rainwise IP-100,2013-02-21 07:49:00,
2013-02-20 23:54:00,32.9,31.0,29.27,SW,225,1.2,-999.0,91,0.00,,,0.00,Rainwise IP-100,2013-02-21 07:54:00,
2013-02-20 23:59:00,33.0,31.0,29.27,SW,225,1.9,-999.0,92,0.00,,,0.00,Rainwise IP-100,2013-02-21 07:59:00,